Broadmeadows, Australia
Current Conditions -  °F | °C
As of 7:30 AM on Wednesday 22 Oct 2014 (Local Time) from YMEN Reporting Station
Clear Clear  
Wind Chill: 64°   Ceiling: Unl
Heat Index: 64°   Visibility: 6mi
Dew Point: 52°   Wind: 23mph
Humidity: 64%   Direction: 360°N
Pressure: 30.09"   Gusts: 35mph
Location:  37.68°S, 144.92°E
Report Text: YMEN 212030Z AUTO 36020G30KT 9999 // NCD 18/11 Q1019
Loading
Personal Weather Stations






























Interactive Weather Map New forecast layout! Learn more

10-Day Weather Forecast

Advertisements
Track Severe Weather on mobile